• In Denmark
  • List of Countries
  • For 7 days
  • Water Temperature
  • Satellite Maps
  • Weather Map
  • Weather Widgets
  • user-avatar
    Login

    Hourly Weather Khampho

    Today, 22 June, Friday

    Time Temperature Precipitation Wind Pressure Humidity
    00:00 +26°C° 0.1 mm 1 mps 734 mmHg 93%
    01:00 +26°C° 0 mm 2 mps 734 mmHg 93%
    02:00 +26°C° 0.1 mm 2 mps 734 mmHg 93%
    03:00 +26°C° 0.1 mm 2 mps 734 mmHg 93%
    04:00 +26°C° 0.1 mm 1 mps 734 mmHg 94%
    05:00 +26°C° 0.1 mm 2 mps 734 mmHg 92%
    06:00 +27°C° 0.1 mm 2 mps 734 mmHg 91%
    07:00 +28°C° 0 mm 1 mps 735 mmHg 88%
    08:00 +29°C° 0.2 mm 2 mps 735 mmHg 81%
    09:00 +30°C° 0.2 mm 2 mps 735 mmHg 75%
    10:00 +33°C° 0.2 mm 3 mps 735 mmHg 68%
    11:00 +33°C° 0.4 mm 3 mps 734 mmHg 65%
    12:00 +34°C° 0.4 mm 3 mps 734 mmHg 62%
    13:00 +35°C° 0 mm 3 mps 734 mmHg 59%
    14:00 +34°C° 0.7 mm 3 mps 734 mmHg 62%
    15:00 +34°C° 0.7 mm 3 mps 733 mmHg 66%
    16:00 +33°C° 0.7 mm 3 mps 732 mmHg 70%
    17:00 +31°C° 1 mm 2 mps 732 mmHg 76%
    18:00 +29°C° 1 mm 1 mps 733 mmHg 82%
    19:00 +26°C° 0 mm 0 mps 733 mmHg 87%
    20:00 +27°C° 0 mm 1 mps 733 mmHg 88%
    21:00 +27°C° 0 mm 1 mps 734 mmHg 90%
    22:00 +27°C° 0 mm 1 mps 734 mmHg 91%
    23:00 +27°C° 0 mm 1 mps 734 mmHg 91%

    Tomorrow, 23 June, Saturday

    Time Temperature Precipitation Wind Pressure Humidity
    00:00 +26°C° 0 mm 1 mps 734 mmHg 92%
    01:00 +26°C° 0 mm 1 mps 734 mmHg 92%
    02:00 +26°C° 0 mm 1 mps 734 mmHg 92%
    03:00 +26°C° 0 mm 1 mps 733 mmHg 92%
    04:00 +26°C° 0 mm 1 mps 733 mmHg 92%
    05:00 +26°C° 0.3 mm 1 mps 734 mmHg 91%
    06:00 +27°C° 0.3 mm 1 mps 734 mmHg 89%
    07:00 +27°C° 0.3 mm 2 mps 734 mmHg 88%
    08:00 +29°C° 1.1 mm 2 mps 734 mmHg 82%
    09:00 +30°C° 1.1 mm 2 mps 734 mmHg 77%
    10:00 +31°C° 1.1 mm 3 mps 734 mmHg 71%
    11:00 +33°C° 0.9 mm 3 mps 733 mmHg 69%
    12:00 +34°C° 0.9 mm 3 mps 733 mmHg 66%
    13:00 +34°C° 0.9 mm 3 mps 733 mmHg 64%
    14:00 +34°C° 1.6 mm 3 mps 732 mmHg 67%
    15:00 +34°C° 1.6 mm 2 mps 732 mmHg 70%
    16:00 +32°C° 1.6 mm 2 mps 732 mmHg 74%
    17:00 +31°C° 1 mm 2 mps 732 mmHg 79%
    18:00 +29°C° 1 mm 2 mps 732 mmHg 84%
    19:00 +28°C° 1 mm 2 mps 732 mmHg 89%
    20:00 +27°C° 0.1 mm 2 mps 732 mmHg 90%
    21:00 +27°C° 0.1 mm 2 mps 733 mmHg 91%
    22:00 +26°C° 0.1 mm 1 mps 733 mmHg 92%
    23:00 +26°C° 0.1 mm 1 mps 733 mmHg 92%

    Day after tomorrow, 24 June, Sunday

    Time Temperature Precipitation Wind Pressure Humidity
    00:00 +26°C° 0.1 mm 1 mps 733 mmHg 92%
    01:00 +26°C° 0.1 mm 1 mps 733 mmHg 92%
    02:00 +26°C° 1.1 mm 2 mps 732 mmHg 93%
    03:00 +25°C° 1.1 mm 2 mps 732 mmHg 93%
    04:00 +25°C° 1.1 mm 2 mps 732 mmHg 94%
    05:00 +26°C° 2.3 mm 2 mps 732 mmHg 93%
    06:00 +26°C° 2.3 mm 2 mps 733 mmHg 92%
    07:00 +26°C° 2.3 mm 2 mps 733 mmHg 91%
    08:00 +27°C° 2 mm 2 mps 734 mmHg 89%
    09:00 +28°C° 2 mm 2 mps 734 mmHg 87%
    10:00 +29°C° 2 mm 2 mps 734 mmHg 86%
    11:00 +29°C° 1.2 mm 2 mps 734 mmHg 83%
    12:00 +30°C° 1.2 mm 2 mps 733 mmHg 81%
    13:00 +30°C° 1.2 mm 2 mps 733 mmHg 79%
    14:00 +30°C° 0.3 mm 2 mps 733 mmHg 78%
    15:00 +30°C° 0.3 mm 2 mps 732 mmHg 78%
    16:00 +30°C° 0.3 mm 2 mps 732 mmHg 77%
    17:00 +29°C° 0.9 mm 1 mps 732 mmHg 81%
    18:00 +28°C° 0.9 mm 1 mps 732 mmHg 85%
    19:00 +27°C° 0.9 mm 1 mps 733 mmHg 89%
    20:00 +27°C° 0.2 mm 1 mps 733 mmHg 90%
    21:00 +26°C° 0.2 mm 1 mps 734 mmHg 91%
    22:00 +26°C° 0.2 mm 1 mps 734 mmHg 92%
    23:00 +26°C° 0.7 mm 1 mps 734 mmHg 92%

    25 June, Monday

    Time Temperature Precipitation Wind Pressure Humidity
    00:00 +26°C° 0.7 mm 1 mps 734 mmHg 93%
    01:00 +25°C° 0.7 mm 1 mps 734 mmHg 93%
    02:00 +25°C° 0.3 mm 1 mps 733 mmHg 94%
    03:00 +25°C° 0.3 mm 1 mps 733 mmHg 94%
    04:00 +25°C° 0.3 mm 2 mps 733 mmHg 94%
    05:00 +25°C° 0.2 mm 2 mps 733 mmHg 93%
    06:00 +26°C° 0.2 mm 2 mps 734 mmHg 92%
    07:00 +26°C° 0.2 mm 2 mps 734 mmHg 90%
    08:00 +28°C° 0.5 mm 2 mps 734 mmHg 85%
    09:00 +29°C° 0.5 mm 2 mps 734 mmHg 79%
    10:00 +30°C° 0.5 mm 3 mps 735 mmHg 74%
    11:00 +31°C° 0.4 mm 3 mps 734 mmHg 71%
    12:00 +33°C° 0.4 mm 3 mps 734 mmHg 68%
    13:00 +33°C° 0.4 mm 3 mps 733 mmHg 65%
    14:00 +33°C° 0.5 mm 3 mps 733 mmHg 68%
    15:00 +33°C° 0.5 mm 3 mps 732 mmHg 70%
    16:00 +31°C° 0.5 mm 3 mps 732 mmHg 73%
    17:00 +30°C° 0.8 mm 2 mps 732 mmHg 79%
    18:00 +28°C° 0.8 mm 2 mps 732 mmHg 85%
    19:00 +27°C° 0.8 mm 1 mps 733 mmHg 90%
    20:00 +27°C° 0.4 mm 1 mps 733 mmHg 91%
    21:00 +26°C° 0.4 mm 1 mps 734 mmHg 92%
    22:00 +26°C° 0.4 mm 1 mps 734 mmHg 92%
    23:00 +26°C° 0.4 mm 1 mps 734 mmHg 92%

    26 June, Tuesday

    Time Temperature Precipitation Wind Pressure Humidity
    00:00 +25°C° 0.4 mm 1 mps 734 mmHg 92%
    01:00 +25°C° 0.4 mm 1 mps 733 mmHg 92%
    02:00 +25°C° 1.5 mm 1 mps 733 mmHg 93%
    03:00 +25°C° 1.5 mm 1 mps 733 mmHg 94%
    04:00 +25°C° 1.5 mm 1 mps 733 mmHg 95%
    05:00 +25°C° 1 mm 1 mps 734 mmHg 95%
    06:00 +25°C° 1 mm 1 mps 734 mmHg 94%
    07:00 +25°C° 1 mm 2 mps 735 mmHg 93%
    08:00 +26°C° 0.4 mm 2 mps 735 mmHg 91%
    09:00 +27°C° 0.4 mm 2 mps 735 mmHg 88%
    10:00 +28°C° 0.4 mm 2 mps 736 mmHg 85%
    11:00 +28°C° 0.3 mm 2 mps 735 mmHg 84%
    12:00 +28°C° 0.3 mm 2 mps 735 mmHg 83%
    13:00 +28°C° 0.3 mm 2 mps 734 mmHg 82%
    14:00 +28°C° 0.1 mm 2 mps 734 mmHg 82%
    15:00 +28°C° 0.1 mm 2 mps 734 mmHg 82%
    16:00 +28°C° 0.1 mm 1 mps 733 mmHg 82%
    17:00 +28°C° 0 mm 1 mps 733 mmHg 85%
    18:00 +27°C° 0 mm 1 mps 734 mmHg 88%
    19:00 +26°C° 0 mm 1 mps 734 mmHg 91%
    20:00 +24°C° 0 mm 0 mps 734 mmHg 91%
    21:00 +24°C° 0 mm 0 mps 735 mmHg 91%
    22:00 +24°C° 0 mm 0 mps 736 mmHg 91%
    23:00 +23°C° 0 mm 0 mps 735 mmHg 91%

    27 June, Wednesday

    Time Temperature Precipitation Wind Pressure Humidity
    00:00 +25°C° 0 mm 1 mps 735 mmHg 91%
    01:00 +25°C° 0 mm 1 mps 735 mmHg 91%
    02:00 +23°C° 0 mm 0 mps 734 mmHg 92%
    03:00 +23°C° 0 mm 0 mps 734 mmHg 92%
    04:00 +23°C° 0 mm 0 mps 734 mmHg 93%
    05:00 +23°C° 0 mm 0 mps 734 mmHg 91%
    06:00 +24°C° 0 mm 0 mps 735 mmHg 88%
    07:00 +25°C° 0 mm 0 mps 735 mmHg 86%
    08:00 +26°C° 0 mm 0 mps 736 mmHg 79%
    09:00 +30°C° 0 mm 1 mps 736 mmHg 71%
    10:00 +32°C° 0 mm 2 mps 736 mmHg 64%
    11:00 +34°C° 0.4 mm 2 mps 735 mmHg 63%
    12:00 +34°C° 0.4 mm 2 mps 735 mmHg 62%
    13:00 +35°C° 0.4 mm 2 mps 734 mmHg 61%
    14:00 +34°C° 1.1 mm 2 mps 734 mmHg 64%
    15:00 +34°C° 1.1 mm 2 mps 733 mmHg 67%
    16:00 +32°C° 1.1 mm 2 mps 733 mmHg 69%
    17:00 +31°C° 0.7 mm 1 mps 733 mmHg 75%
    18:00 +29°C° 0.7 mm 1 mps 734 mmHg 81%
    19:00 +26°C° 0.7 mm 0 mps 734 mmHg 87%
    20:00 +26°C° 0 mm 0 mps 734 mmHg 88%
    21:00 +25°C° 0 mm 0 mps 735 mmHg 88%
    22:00 +25°C° 0 mm 0 mps 735 mmHg 89%
    23:00 +25°C° 0.3 mm 0 mps 735 mmHg 90%
    Show more